Weather History for Shelton, WA

Change the Weather History Date:

Saturday, May 25, 2013

  Actual Average Record
Temperature  
Mean Temperature 50 °F -  
Max Temperature 55 °F 68 °F 87 °F (1992)
Min Temperature 46 °F 47 °F 35 °F (1964)
Degree Days  
Heating Degree Days 14    
Moisture  
Dew Point 48 °F    
Average Humidity 89    
Maximum Humidity 100    
Minimum Humidity 77    
Precipitation  
Precipitation 0.05 in - - ()
Sea Level Pressure  
Sea Level Pressure 30.02 in    
Wind  
Wind Speed 4 mph (SW)    
Max Wind Speed 12 mph    
Max Gust Speed -    
Visibility 10 miles    
Events Rain    
Averages and records for this station are not official NWS values.
T = Trace of Precipitation, MM = Missing Value Source: NWS Daily Summary

Daily Weather History Graph

Daily Weather History Graph

Search for Another Location

Airport:

Trip Planner

Search our weather history database for the weather conditions in past years. The results will help you decide how hot, cold, wet, or windy it might be!

Date:

Astronomy

May. 25, 2013 Rise Set
Actual Time 5:25 AM PDT 8:54 PM PDT
Civil Twilight 4:47 AM PDT 9:32 PM PDT
Nautical Twilight 3:57 AM PDT 10:22 PM PDT
Astronomical Twilight 2:51 AM PDT 11:29 PM PDT
Moon 9:47 PM PDT (5/25) 5:59 AM PDT (5/25)
Length of Visible Light 16h 44m
Length of Day
15h 28m
Waxing Gibbous, 99% of the Moon is Illuminated
May 25
Waxing Gibbous
May 31
Last Quarter
Jun 8
New
Jun 16
First Quarter
Jun 23
Full

Hourly Weather History & Observations

Time (PDT) Temp. Windchill Dew Point Humidity Pressure Visibility Wind Dir Wind Speed Gust Speed Precip Events Conditions
12:53 AM 48.0 °F - 46.0 °F 93% 30.04 in 10.0 mi SW 6.9 mph - N/A   Clear
1:53 AM 46.9 °F - 46.0 °F 97% 30.04 in 10.0 mi SW 4.6 mph - N/A   Mostly Cloudy
2:53 AM 48.0 °F - 46.0 °F 93% 30.03 in 10.0 mi SW 11.5 mph - N/A   Overcast
3:53 AM 46.9 °F - 46.0 °F 97% 30.02 in 10.0 mi SW 5.8 mph - N/A   Overcast
4:18 AM 46.4 °F 44.3 °F 46.4 °F 100% 30.02 in 10.0 mi SW 4.6 mph - N/A   Overcast
4:53 AM 46.9 °F - 45.0 °F 93% 30.02 in 10.0 mi SW 5.8 mph - N/A   Overcast
5:53 AM 46.9 °F - 45.0 °F 93% 30.03 in 10.0 mi Calm Calm - N/A   Overcast
6:53 AM 48.0 °F - 46.9 °F 96% 30.03 in 10.0 mi Calm Calm - N/A   Overcast
7:53 AM 48.9 °F - 46.9 °F 93% 30.04 in 9.0 mi Calm Calm - 0.01 in Rain Light Rain
8:20 AM 48.2 °F - 48.2 °F 100% 30.03 in 10.0 mi Calm Calm - 0.00 in Rain Light Rain
8:35 AM 50.0 °F - 48.2 °F 94% 30.03 in 10.0 mi Calm Calm - 0.00 in   Overcast
8:53 AM 50.0 °F - 46.9 °F 89% 30.03 in 10.0 mi Calm Calm - 0.00 in   Overcast
9:22 AM 51.8 °F - 46.4 °F 82% 30.03 in 10.0 mi Calm Calm - N/A   Overcast
9:53 AM 51.1 °F - 46.9 °F 86% 30.03 in 10.0 mi SE 5.8 mph - N/A   Overcast
10:42 AM 53.6 °F - 46.4 °F 77% 30.02 in 10.0 mi ESE 4.6 mph - N/A   Overcast
10:53 AM 53.1 °F - 46.9 °F 80% 30.03 in 10.0 mi South 3.5 mph - N/A   Overcast
11:26 AM 53.6 °F - 46.4 °F 77% 30.02 in 10.0 mi SE 4.6 mph - 0.00 in Rain Light Rain
11:53 AM 53.1 °F - 48.0 °F 83% 30.03 in 9.0 mi West 3.5 mph - 0.00 in Rain Light Rain
12:53 PM 55.0 °F - 48.0 °F 77% 30.03 in 10.0 mi WSW 5.8 mph - 0.00 in   Overcast
1:53 PM 54.0 °F - 46.9 °F 77% 30.03 in 10.0 mi SSW 3.5 mph - 0.00 in Rain Light Rain
2:53 PM 54.0 °F - 50.0 °F 86% 30.03 in 10.0 mi Variable 3.5 mph - 0.01 in Rain Light Rain
3:53 PM 54.0 °F - 48.9 °F 83% 30.03 in 10.0 mi West 5.8 mph - 0.01 in   Overcast
4:53 PM 54.0 °F - 50.0 °F 86% 30.02 in 10.0 mi West 5.8 mph - 0.00 in Rain Light Rain
5:53 PM 54.0 °F - 50.0 °F 86% 30.01 in 10.0 mi West 5.8 mph - 0.00 in Rain Light Rain
6:53 PM 53.1 °F - 48.9 °F 86% 30.00 in 10.0 mi West 3.5 mph - 0.00 in   Overcast
7:53 PM 52.0 °F - 48.9 °F 89% 29.99 in 10.0 mi West 4.6 mph - 0.01 in Rain Light Rain
8:53 PM 52.0 °F - 50.0 °F 93% 29.98 in 10.0 mi Calm Calm - 0.01 in Rain Light Rain
9:53 PM 52.0 °F - 51.1 °F 97% 29.98 in 10.0 mi Calm Calm - 0.00 in   Overcast
10:53 PM 52.0 °F - 50.0 °F 93% 29.98 in 10.0 mi Calm Calm - N/A   Overcast
11:53 PM 51.1 °F - 48.9 °F 92% 29.97 in 10.0 mi Calm Calm - N/A   Overcast